Home   Weather   Kallithea   Past weeks

Flag for Greece Past Weather in Kallithea, Greece — Yesterday and Last 2 Weeks

61 °F

Broken clouds.

Feels Like: 61 °F
Forecast: 55 / 66 °F
Wind: 9 mph from North

Location: Elefsis Airport

Current Time: Oct 28, 2016 at 5:05:19 PM

Latest Report: Oct 28, 2016 at 4:20 PM

Visibility: N/A

Pressure: 30.21 "Hg

Humidity: 63%

Dew Point: 48 °F

Location of KallitheaLocation

Past Weather in Kallithea — Graph


Kallithea Temperature Yesterday

Maximum temperature yesterday: 70 °F (at 1:50 PM)
Minimum temperature yesterday: 61 °F (at 12:20 AM)
Average temperature yesterday: 65 °F

High & Low Weather Summary for the Past Weeks

High81 °F (Oct 13, 3:50 PM)100% (Oct 19, 10:50 PM)30.30 "Hg (Oct 19, 10:50 PM)
Low50 °F (Oct 19, 6:50 AM)13% (Oct 13, 4:50 PM)29.98 "Hg (Oct 22, 4:20 AM)
Average65 °F60%30.13 "Hg
* Reported Oct 13 3:50 PM — Oct 28 3:50 PM, Kallithea, Weather by CustomWeather, © 2016

Note: Actual official high and low records may vary slightly from our data, if they occured in-between our weather recording intervals... More about our weather records


Kallithea Weather History for the Previous 24 Hours

Scroll right to see more
Time TempWeatherWind HumidityBarometerVisibility
3:50 PM
Fri, Oct 28
61 °FBroken clouds.9 mph63%30.21 "HgN/A
3:20 PM61 °FBroken clouds.9 mph63%30.21 "HgN/A
2:50 PM63 °FBroken clouds.12 mph59%30.21 "HgN/A
2:20 PM63 °FBroken clouds.9 mph59%30.21 "HgN/A
1:50 PM63 °FBroken clouds.12 mph59%30.21 "HgN/A
1:20 PM63 °FBroken clouds.9 mph56%30.21 "HgN/A
12:50 PM61 °FBroken clouds.10 mph63%30.21 "HgN/A
12:20 PM63 °FBroken clouds.8 mph59%30.21 "HgN/A
11:50 AM63 °FBroken clouds.7 mph59%30.21 "HgN/A
11:20 AM61 °FBroken clouds.6 mph63%30.21 "HgN/A
10:50 AM61 °FLight rain. Broken clouds.6 mph63%30.21 "HgN/A
10:20 AM59 °FLight rain. Broken clouds.7 mph68%30.21 "HgN/A
9:50 AM61 °FBroken clouds.8 mph59%30.21 "HgN/A
9:20 AM61 °FBroken clouds.10 mph59%30.18 "HgN/A
8:50 AM61 °FPartly sunny.7 mph59%30.18 "HgN/A
8:20 AM61 °FPartly sunny.7 mph59%30.15 "HgN/A
7:50 AM61 °FPartly sunny.7 mph59%30.15 "HgN/A
7:20 AM59 °FPassing clouds.9 mph63%30.15 "HgN/A
6:50 AM59 °FPassing clouds.8 mph63%30.15 "HgN/A
6:20 AM59 °FLight rain. Passing clouds.9 mph63%30.18 "HgN/A
5:50 AM61 °FLight rain. Passing clouds.9 mph59%30.18 "HgN/A
5:20 AM61 °FPassing clouds.9 mph59%30.18 "HgN/A
4:20 AM61 °FPassing clouds.14 mph55%30.15 "HgN/A
3:50 AM61 °FPassing clouds.12 mph55%30.15 "HgN/A
3:20 AM61 °FPassing clouds.14 mph55%30.15 "HgN/A
2:50 AM63 °FPassing clouds.14 mph49%30.15 "HgN/A
2:20 AM63 °FPassing clouds.12 mph52%30.15 "HgN/A
1:50 AM63 °FPassing clouds.14 mph56%30.18 "HgN/A
1:20 AM63 °FPassing clouds.10 mph56%30.15 "HgN/A
12:50 AM63 °FPassing clouds.7 mph56%30.15 "HgN/A
12:20 AM64 °FPassing clouds.8 mph52%30.15 "HgN/A
11:50 PM
Thu, Oct 27
64 °FPassing clouds.9 mph56%30.15 "HgN/A
11:20 PM64 °FPassing clouds.9 mph52%30.15 "HgN/A
10:50 PM64 °FPassing clouds.6 mph52%30.15 "HgN/A
10:20 PM64 °FPassing clouds.9 mph56%30.15 "HgN/A
9:50 PM64 °FPassing clouds.9 mph56%30.15 "HgN/A
9:20 PM64 °FPassing clouds.8 mph56%30.12 "HgN/A
8:50 PM64 °FPassing clouds.8 mph56%30.12 "HgN/A
8:20 PM64 °FPartly cloudy.7 mph56%30.12 "HgN/A
7:50 PM64 °FPartly cloudy.6 mph56%30.12 "HgN/A
7:20 PM64 °FPartly cloudy.8 mph56%30.12 "HgN/A
6:50 PM66 °FPartly cloudy.7 mph52%30.12 "HgN/A
6:20 PM66 °FBroken clouds.7 mph52%30.12 "HgN/A
5:50 PM66 °FBroken clouds.5 mph52%30.09 "HgN/A
5:20 PM68 °FBroken clouds.7 mph46%30.12 "HgN/A
Weather by CustomWeather, © 2016

See weather overviewHow to use our weather pages